Regional Weather Roundup
Issued by NWS

Home | Current Version | Previous Version | Text Only | Print | Product List | Glossary Off
Versions: 1 2 3 4 5 6 7 8 9 10 11 12 13 14 15 16 17 18 19 20 21 22 23 24 25 26 27 28 29 30 31 32 33 34 35 36 37 38 39 40 41 42 43 44 45 46 47 48 49 50

549
ASUS45 KCYS 260010
RWRWY

WYOMING REGIONAL WEATHER ROUNDUP
NATIONAL WEATHER SERVICE CHEYENNE WY
600 PM MDT TUE APR 25 2017

NOTE:  "FAIR" INDICATES FEW OR NO CLOUDS BELOW 12,000 FEET
WITH NO SIGNIFICANT WEATHER AND/OR OBSTRUCTIONS TO VISIBILITY.

WYZ001-260100-
YELLOWSTONE NATIONAL PARK

CITY           SKY/WX    TMP DP  RH WIND       PRES   REMARKS
LK YELLOWSTONE   N/A     38  27  64 VRB6      29.83S WCI  33
6HR MIN TEMP:  32; 6HR MAX TEMP:  42; 6HR PCP:  0.03;

W YELLOWSTONE  NOT AVBL

$$
WYZ002>013-054>058-071-098>099-260100-
NORTHERN WYOMING

CITY           SKY/WX    TMP DP  RH WIND       PRES   REMARKS
JACKSON        PTSUNNY   41  34  75 N17G29    29.81R
CODY           FAIR      43  32  65 NE13      29.81S
GREYBULL       FAIR      49  30  48 N16       29.76S
6HR MIN TEMP:  39; 6HR MAX TEMP:  51;

WORLAND        PTSUNNY   49  36  61 NW16      29.77R
6HR MIN TEMP:  42; 6HR MAX TEMP:  50;

SHERIDAN       CLOUDY    34  30  85 CALM      29.86S
6HR MIN TEMP:  33; 6HR MAX TEMP:  36; 6HR PCP:  0.04;

BUFFALO        NOT AVBL
GILLETTE       LGT SNOW  28  28 100 N13       29.84R WCI  17
6HR MIN TEMP:  28; 6HR MAX TEMP:  29; 6HR PCP:  0.09;

HULETT         LGT SNOW  30  27  86 NE7       29.85R WCI  23
NEWCASTLE      LGT SNOW  32  27  80 NW21      29.78R WCI  20

$$
WYZ014>020-022>026-101>103-260100-
CENTRAL WYOMING

CITY           SKY/WX    TMP DP  RH WIND       PRES   REMARKS
BIG PINEY      FAIR      45  29  53 N20       29.79R
6HR MIN TEMP:  41; 6HR MAX TEMP:  48; 6HR PCP: TRACE;

PINEDALE       MOCLDY    43  30  61 NW18      29.80R
DUBOIS         MOCLDY    41  21  45 E6        29.76R
LANDER         CLOUDY    42  29  59 NW9       29.80R
6HR MIN TEMP:  35; 6HR MAX TEMP:  42; 6HR PCP:  0.01;

RIVERTON       FAIR      44  28  53 N13       29.80R
6HR MIN TEMP:  36; 6HR MAX TEMP:  45; 6HR PCP: TRACE;

CASPER         CLOUDY    31  26  82 NE10      29.83R WCI  22
6HR MIN TEMP:  29; 6HR MAX TEMP:  32; 6HR PCP: TRACE;

DOUGLAS        LGT SNOW  30  25  81 NW15      29.82R VSB 1   WCI  19
6HR MIN TEMP:  30; 6HR MAX TEMP:  36; 6HR PCP: TRACE;


$$
WYZ021-027>030-104>119-260100-
SOUTHERN WYOMING

CITY           SKY/WX    TMP DP  RH WIND       PRES   REMARKS
EVANSTON       CLOUDY    39  29  67 NW18      29.87R WCI  30
6HR MIN TEMP:  38; 6HR MAX TEMP:  44; 6HR PCP: TRACE;

KEMMERER         N/A     41  32  70 W23G30    29.83R
FORT BRIDGER   MOCLDY    46  31  55 NW22G30   29.86R
ROCK SPRINGS   PTSUNNY   36  32  85 CALM      29.81S
6HR MIN TEMP:  33; 6HR MAX TEMP:  40; 6HR PCP:  0.13;

DIXON            N/A     42  30  62 N10       29.79R
RAWLINS        CLOUDY    36  26  67 VRB6      29.79R WCI  31
6HR MIN TEMP:  30; 6HR MAX TEMP:  39; 6HR PCP:  0.05;

SARATOGA       MOCLDY    36  27  69 NW10G21   29.79R WCI  28
LARAMIE        FAIR      33  22  63 NW21G28   29.74R WCI  21
6HR MIN TEMP:  31; 6HR MAX TEMP:  46; 6HR PCP:  0.01;

CHEYENNE       FAIR      38  26  62 N20G29    29.69R WCI  28
                                      6HR PCP: TRACE;

TORRINGTON     CLOUDY    40  29  64 W12       29.72R WCI  33
6HR MIN TEMP:  39; 6HR MAX TEMP:  46; 6HR PCP:  0.01;

PINE BLUFFS    CLOUDY    37  32  81 N25G31    29.71R WCI  26

$$




USA.gov is the U.S. government's official web portal to all federal, state and local government web resources and services.